Simultaneous Nadir Overpasses (SNOs) Predictions

Prediction of SNOs between NOAA-19 and TERRA Satellite Orbit:

Table of predicted SNOs for the next 14.0 days since TLE Epoch: 2/3/2018
Index Date (NOAA-19) Time (NOAA-19) Lat,Lon (NOAA-19) SZA (NOAA-19 ) Date (TERRA) Time (TERRA) Lat,Lon (TERRA) SZA (TERRA ) Distance(km) Time Diff (sec)
1 02/04/2018 14:25:19 76.90, -23.28 93.12 02/04/2018 14:26:28 76.75, -21.44 93.06 49.42 69
2 02/04/2018 15:16:16 -76.54, 145.44 87.19 02/04/2018 15:16:00 -76.53, 145.43 87.21 1.62 16
3 02/06/2018 19:59:03 -76.87, 73.49 87.59 02/06/2018 20:00:13 -76.76, 75.16 87.62 44.00 70
4 02/06/2018 20:49:52 76.56,-117.97 92.15 02/06/2018 20:49:43 76.55,-117.92 92.14 2.04 9
5 02/09/2018 02:23:36 -76.54, -21.25 88.57 02/09/2018 02:23:28 -76.57, -21.29 88.55 3.40 8
6 02/11/2018 07:57:13 76.60, 75.20 90.76 02/11/2018 07:57:11 76.59, 75.35 90.76 4.14 2
7 02/13/2018 13:30:57 -76.60, 171.83 89.99 02/13/2018 13:30:57 -76.58, 171.85 90.01 2.96 0
8 02/15/2018 19:04:33 76.60, -91.48 89.26 02/15/2018 19:04:40 76.60, -91.51 89.26 0.72 7




NCC Satellite Simultaneous Nadir Overpasses (SNOs) Prediction Service
